This is the latest recevied weather packets stored in our database for station/object IW3HBX-3. If no packets are shown the sender has not sent any weather packets the latest 10 day(s).
| Time | Temp. | Humidity | Pressure | Rain* | Wind** | Luminosity | Snow |
|---|---|---|---|---|---|---|---|
| 1777542042 | 15° C | 41% | 1026 hPa | 0 mm | - | 717 W/m² | - |
| 1777541743 | 15.56° C | 41% | 1026.1 hPa | 0 mm | - | 713 W/m² | - |
| 1777541443 | 15° C | 41% | 1026.1 hPa | 0 mm | - | 707 W/m² | - |
| 1777541143 | 15.56° C | 40% | 1026.1 hPa | 0 mm | - | 702 W/m² | - |
| 1777540843 | 15.56° C | 41% | 1026.1 hPa | 0 mm | - | 695 W/m² | - |
| 1777540543 | 15.56° C | 41% | 1026.2 hPa | 0 mm | - | 680 W/m² | - |
| 1777540243 | 15° C | 41% | 1026.3 hPa | 0 mm | - | 671 W/m² | - |
| 1777539943 | 15° C | 42% | 1026.3 hPa | 0 mm | - | 666 W/m² | - |
| 1777539643 | 14.44° C | 42% | 1026.2 hPa | 0 mm | - | 657 W/m² | - |
| 1777539343 | 15° C | 41% | 1026.2 hPa | 0 mm | - | 650 W/m² | - |
| 1777539043 | 14.44° C | 41% | 1026.1 hPa | 0 mm | - | 639 W/m² | - |
| 1777538743 | 14.44° C | 42% | 1026.1 hPa | 0 mm | - | 630 W/m² | - |
| 1777538443 | 14.44° C | 43% | 1026 hPa | 0 mm | - | 622 W/m² | - |
| 1777538144 | 15° C | 42% | 1026 hPa | 0 mm | - | 606 W/m² | - |
| 1777537844 | 14.44° C | 43% | 1025.9 hPa | 0 mm | - | 594 W/m² | - |
| 1777537544 | 13.89° C | 44% | 1025.9 hPa | 0 mm | - | 581 W/m² | - |
| 1777537244 | 14.44° C | 45% | 1026 hPa | 0 mm | - | 582 W/m² | - |
| 1777536944 | 13.89° C | 45% | 1025.8 hPa | 0 mm | - | 602 W/m² | - |
| 1777536644 | 13.89° C | 45% | 1025.9 hPa | 0 mm | - | 659 W/m² | - |
| 1777536344 | 13.33° C | 45% | 1025.9 hPa | 0 mm | - | 573 W/m² | - |
| 1777536276 | 13.33° C | 46% | 1025.9 hPa | 0 mm | - | 450 W/m² | - |
| 1777536044 | 13.33° C | 46% | 1025.9 hPa | 0 mm | - | 450 W/m² | - |
| 1777535744 | 13.33° C | 46% | 1025.9 hPa | 0 mm | - | 403 W/m² | - |
| 1777535444 | 13.33° C | 46% | 1025.8 hPa | 0 mm | - | 522 W/m² | - |
| 1777535144 | 12.78° C | 46% | 1025.9 hPa | 0 mm | - | 552 W/m² | - |
* Rain latest hour (hover to see other rain measurements)
** Current wind speed in m/s (hover to see current wind gust speed)